Flag for Canada Weather past 2 weeks in Ottawa, Ontario, Canada

Now
61 °F

Passing clouds.


Feels Like: 61 °F
Forecast: 57 / 77 °F
Wind: 5 mph from South

Location: Ottawa Int'L. Ont.

Current Time: Aug 30, 2014 at 2:50:14 AM

Latest Report: Aug 30, 2014 at 2:00 AM


Visibility: 15 mi

Pressure: 30.13 "Hg

Humidity: 83%

Dew point: 55 °F

Location of OttawaLocation

Historic Weather in Ottawa — Graph

°F

Ottawa temperature yesterday

Maximum temperature yesterday: 73 °F (at 6:00 PM)
Minimum temperature yesterday: 50 °F (at 3:00 AM)
Average temperature yesterday: 61 °F

Past Weeks' High & Low Weather Summary

 TemperatureHumidityPressure
High84 °F (Aug 26, 3:00 PM)100% (Aug 16, 3:00 PM)30.22 "Hg (Aug 16, 3:00 PM)
Low48 °F (Aug 18, 6:00 AM)41% (Aug 19, 4:00 PM)29.74 "Hg (Aug 16, 7:00 PM)
Average65 °F79%30.00 "Hg
* Reported Aug 15 1:00 AM — Aug 30 1:00 AM, Ottawa, Weather by CustomWeather, © 2014

Note: Actual official high and low records may vary slightly from our data, if they occured in-between our weather recording intervals... More about our weather records

Advertising

Ottawa weather history for previous 24 hours

 ConditionsComfort  
Time TempWeatherWind HumidityBarometerVisibility
1:00 AM
Aug 30
61 °FPassing clouds.5 mph88%30.14 "Hg15 mi
12:00 AM61 °FPartly cloudy.6 mph83%30.14 "Hg15 mi
11:00 PM
Aug 29
63 °FPassing clouds.3 mph83%30.14 "Hg15 mi
10:00 PM63 °FPassing clouds.3 mph83%30.15 "Hg15 mi
9:00 PM63 °FPartly cloudy.6 mph83%30.15 "Hg15 mi
8:00 PM64 °FBroken clouds.6 mph78%30.14 "Hg15 mi
7:00 PM68 °FScattered clouds.6 mph69%30.14 "Hg15 mi
6:00 PM73 °FBroken clouds.7 mph57%30.14 "Hg15 mi
5:00 PM72 °FBroken clouds.5 mph57%30.15 "Hg15 mi
3:00 PM72 °FScattered clouds.5 mph57%30.18 "Hg15 mi
2:00 PM72 °FScattered clouds.6 mph53%30.20 "Hg15 mi
1:00 PM68 °FScattered clouds.No wind60%30.21 "Hg15 mi
12:00 PM68 °FPartly sunny.3 mph64%30.22 "Hg15 mi
11:00 AM64 °FPartly sunny.7 mph73%30.22 "Hg15 mi
10:00 AM64 °FPartly sunny.8 mph73%30.22 "Hg15 mi
9:00 AM61 °FPassing clouds.8 mph83%30.21 "Hg15 mi
8:00 AM57 °FPassing clouds.6 mph88%30.20 "Hg15 mi
7:00 AM55 °FPassing clouds.6 mph88%30.18 "Hg15 mi
6:00 AM52 °FFog.2 mph94%30.17 "Hg15 mi
5:00 AM50 °FClear.2 mph100%30.15 "Hg15 mi
4:00 AM52 °FClear.6 mph94%30.13 "Hg15 mi
3:00 AM50 °FClear.6 mph100%30.13 "Hg15 mi
2:00 AM55 °FClear.8 mph88%30.12 "Hg15 mi
Weather by CustomWeather, © 2014

See weather overviewHow to use our weather pages